Вернуться в каталог

STARLINK-30906

АктивенСвязьVLEO
NORAD 58408·PAYLOAD·🇺🇸 United States

Запущен Nov 22, 2023 с Cape Canaveral Space Force Station

Loading…

Ближайшие Пролёты (ближайшие 24 часа)

TLE

СвежийSource: CelesTrak SupGP

Эпоха: Sep 14, 2026, 22:49 UTC

1 58408C 23180G   26257.95118056  .00057317  00000+0  20754-2 0  2575
2 58408  43.0031  67.4366 0001964 269.6472 152.2606 15.27558913    15

Отслеживайте STARLINK-30906 в реальном времени с AllMySat

Download on the App Store